Weather History for Somerville, NJ

Change the Weather History Date:

Wednesday, February 13, 2013

  Actual Average Record
Temperature  
Mean Temperature 32 °F -  
Max Temperature 43 °F 35 °F 61 °F (1951)
Min Temperature 21 °F 16 °F -12 °F (1933)
Degree Days  
Heating Degree Days 33    
Moisture  
Dew Point 27 °F    
Average Humidity 79    
Maximum Humidity 100    
Minimum Humidity 47    
Precipitation  
Precipitation 0.04 in - - ()
Sea Level Pressure  
Sea Level Pressure 29.79 in    
Wind  
Wind Speed 1 mph (WNW)    
Max Wind Speed 6 mph    
Max Gust Speed -    
Visibility 7 miles    
Events Snow    
Averages and records for this station are not official NWS values.
T = Trace of Precipitation, MM = Missing Value Source: NWS Daily Summary

Daily Weather History Graph

Daily Weather History Graph

Search for Another Location

Airport:

Trip Planner

Search our weather history database for the weather conditions in past years. The results will help you decide how hot, cold, wet, or windy it might be!

Date:

Astronomy

Feb. 13, 2013 Rise Set
Actual Time 6:54 AM EST 5:31 PM EST
Civil Twilight 6:26 AM EST 5:59 PM EST
Nautical Twilight 5:54 AM EST 6:31 PM EST
Astronomical Twilight 5:22 AM EST 7:03 PM EST
Moon 8:21 AM EST (2/13) 9:33 PM EST (2/13)
Length of Visible Light 11h 33m
Length of Day
10h 36m
Waxing Crescent, 13% of the Moon is Illuminated
Feb 13
Waxing Crescent
Feb 17
First Quarter
Feb 25
Full
Mar 4
Last Quarter
Mar 11
New

Hourly Weather History & Observations

Time (EST) Temp. Windchill Dew Point Humidity Pressure Visibility Wind Dir Wind Speed Gust Speed Precip Events Conditions
12:53 AM 27.0 °F - 23.0 °F 85% 29.94 in 10.0 mi Calm Calm - N/A   Clear
1:53 AM 25.0 °F - 21.9 °F 88% 29.96 in 10.0 mi Calm Calm - N/A   Clear
2:53 AM 24.1 °F - 21.0 °F 88% 29.95 in 10.0 mi Calm Calm - N/A   Clear
3:53 AM 24.1 °F - 21.0 °F 88% 29.92 in 10.0 mi Calm Calm - N/A   Clear
4:53 AM 23.0 °F 18.4 °F 21.0 °F 92% 29.91 in 9.0 mi NW 3.5 mph - N/A   Clear
5:53 AM 21.0 °F - 19.0 °F 92% 29.92 in 9.0 mi Calm Calm - N/A   Clear
6:53 AM 21.9 °F - 19.0 °F 89% 29.91 in 8.0 mi Calm Calm - N/A   Clear
7:53 AM 24.1 °F - 21.9 °F 91% 29.91 in 8.0 mi Calm Calm - N/A   Clear
8:53 AM 30.9 °F - 25.0 °F 79% 29.89 in 10.0 mi Calm Calm - N/A   Clear
9:53 AM 37.9 °F 34.4 °F 21.9 °F 53% 29.87 in 10.0 mi North 4.6 mph - N/A   Clear
10:53 AM 39.0 °F 34.8 °F 24.1 °F 55% 29.90 in 10.0 mi South 5.8 mph - N/A   Clear
11:53 AM 39.0 °F 35.7 °F 24.1 °F 55% 29.86 in 10.0 mi South 4.6 mph - N/A   Clear
12:53 PM 41.0 °F - 24.1 °F 51% 29.81 in 10.0 mi Calm Calm - N/A   Clear
1:53 PM 43.0 °F - 25.0 °F 49% 29.78 in 10.0 mi Calm Calm - N/A   Clear
2:53 PM 43.0 °F - 24.1 °F 47% 29.76 in 10.0 mi Calm Calm - N/A   Clear
3:53 PM 42.1 °F 39.2 °F 26.1 °F 53% 29.75 in 10.0 mi South 4.6 mph - N/A   Mostly Cloudy
4:53 PM 41.0 °F - 24.1 °F 51% 29.70 in 10.0 mi Calm Calm - N/A   Partly Cloudy
5:53 PM 39.9 °F - 25.0 °F 55% 29.68 in 10.0 mi Calm Calm - N/A   Overcast
6:53 PM 37.9 °F - 28.0 °F 68% 29.70 in 10.0 mi Calm Calm - 0.00 in   Overcast
7:53 PM 35.1 °F - 30.9 °F 85% 29.70 in 9.0 mi Calm Calm - 0.01 in   Overcast
8:43 PM 35.6 °F 32.8 °F 32.0 °F 87% 29.71 in 5.0 mi WNW 3.5 mph - 0.00 in Snow Light Snow
8:53 PM 35.1 °F 31.0 °F 32.0 °F 89% 29.72 in 6.0 mi NW 4.6 mph - 0.01 in   Overcast
9:09 PM 33.8 °F 30.8 °F 32.0 °F 93% 29.71 in 2.5 mi NW 3.5 mph - 0.00 in Snow Light Snow
9:33 PM 33.8 °F - 32.0 °F 93% 29.70 in 2.5 mi Calm Calm - 0.00 in Snow Light Snow
9:41 PM 33.8 °F - 32.0 °F 93% 29.70 in 3.0 mi Calm Calm - 0.00 in Snow Light Snow
9:53 PM 34.0 °F - 32.0 °F 92% 29.71 in 2.5 mi Calm Calm - 0.00 in Snow Light Snow
10:06 PM 33.8 °F - 32.0 °F 93% 29.69 in 1.8 mi Calm Calm - 0.00 in Snow Light Snow
10:18 PM 33.8 °F - 32.0 °F 93% 29.69 in 2.5 mi Calm Calm - 0.01 in Snow Light Snow
10:53 PM 33.1 °F - 32.0 °F 96% 29.70 in 2.5 mi Calm Calm - 0.01 in Snow Light Snow
11:09 PM 33.8 °F - 32.0 °F 93% 29.70 in 2.5 mi Calm Calm - 0.01 in   Overcast
11:17 PM 33.8 °F - 33.8 °F 100% 29.69 in 3.0 mi Calm Calm - 0.01 in   Overcast
11:53 PM 33.1 °F - 32.0 °F 96% 29.71 in 3.0 mi Calm Calm - 0.01 in   Overcast